Wind_Speed
20 21 21 20 21 22 22 21 22 21 21 21 21 20 19 19 18 17 15 14 16 18 17 18 17 18 17 17 16 16 15 14 13
22 22 23 24 24 25 25 23 24 24 24 24 23 23 23 23 21 19 18 16 17 18 20 19 19 19 19 18 18 17 16 15 15
24 25 25 26 26 26 27 28 27 27 26 26 26 25 25 26 26 24 21 19 18 18 21 21 21 21 21 20 19 18 17 16 16
22 22 23 24 26 27 28 30 31 31 31 28 29 29 29 29 29 28 26 23 20 20 20 22 23 22 22 21 20 19 18 17 16
17 17 18 20 21 22 25 27 30 32 33 34 33 32 32 33 32 32 29 28 24 22 21 21 22 23 23 22 21 20 19 18 17
16 18 18 18 18 19 21 24 27 30 33 35 37 38 38 37 36 35 32 31 28 25 24 22 22 22 23 23 22 21 20 19 18
17 18 19 19 19 20 21 23 25 28 31 35 38 41 43 43 41 39 35 34 33 29 26 25 24 23 23 24 23 22 21 20 20
17 18 19 19 20 21 22 24 26 28 31 34 38 42 45 47 48 45 40 37 36 34 30 28 27 26 24 24 24 23 22 21 21
17 18 18 20 22 24 25 27 29 32 35 38 40 44 48 50 51 49 45 42 39 36 33 32 30 28 26 25 24 23 23 22 21
18 18 21 22 23 25 26 28 30 32 35 39 44 46 49 52 54 51 48 47 42 40 39 34 33 30 30 27 26 24 23 22 21
18 19 22 24 25 25 26 27 28 29 34 36 41 46 49 51 53 54 52 49 46 44 40 39 38 31 31 30 27 27 25 23 22
19 21 22 24 24 25 26 27 30 33 36 40 41 43 48 49 50 50 55 50 46 44 43 40 39 37 33 32 30 29 28 27 25
20 22 23 24 25 25 27 29 30 33 36 36 39 43 43 42 43 47 47 52 47 44 43 40 43 36 30 33 33 33 32 31 29
21 22 24 24 25 27 27 30 34 35 32 35 35 35 35 33 33 37 40 42 40 43 40 42 43 40 35 35 36 37 37 36 34
23 23 24 25 26 27 28 28 33 37 34 34 30 28 27 22 21 28 34 40 44 37 40 40 38 38 35 37 39 36 37 40 39
24 24 24 25 26 27 28 28 30 32 32 29 24 23 20 13 12 17 24 28 35 38 40 42 42 40 39 35 40 25 32 26 29
25 25 25 25 25 27 27 28 27 29 32 28 24 20 15 10 6 5 11 18 29 30 33 25 35 34 47 18 17 21 40 36 23
25 25 25 26 26 25 25 26 26 26 26 26 21 17 16 9 5 3 6 13 15 18 27 32 29 33 33 34 27 27 28 27 42
26 27 27 27 27 26 24 23 23 23 23 21 17 13 11 11 4 4 8 14 12 10 17 16 16 19 18 18 18 19 23 26 27
27 28 28 28 28 26 24 23 21 19 18 18 14 11 8 4 1 2 5 8 16 19 16 19 22 22 17 16 17 19 24 25 24
Wind_Direction
286 282 277 268 268 269 268 268 270 269 270 272 274 274 271 274 276 275 274 271 263 254 251 251 250 249 246 246 243 242 242 246 251
282 279 276 274 271 269 270 267 267 266 265 266 266 268 271 272 271 271 271 269 266 258 249 249 251 249 247 245 244 244 246 247 248
285 283 282 279 275 273 270 267 264 263 262 262 263 263 264 265 268 270 267 267 267 263 255 247 247 246 246 246 244 243 243 245 249
292 289 286 283 279 275 272 270 267 266 263 260 261 261 262 261 261 263 266 266 264 265 260 253 246 244 244 244 244 243 244 243 245
301 301 298 292 287 283 279 274 272 269 266 266 261 258 258 258 259 259 261 263 261 261 261 257 251 246 243 242 243 243 244 245 246
310 306 304 303 300 292 283 277 274 270 268 265 262 259 255 256 255 255 257 259 258 255 258 255 251 249 246 243 241 242 242 243 245
304 303 301 300 300 298 296 293 287 282 276 269 265 261 259 255 252 252 250 253 256 254 252 253 247 247 248 245 243 241 242 243 244
304 301 302 305 307 303 300 296 292 287 282 277 270 265 259 257 253 249 248 245 248 251 250 251 248 243 245 246 244 243 243 243 245
306 306 307 307 306 302 299 296 291 286 282 278 270 266 260 255 253 248 244 241 241 243 245 251 246 244 242 244 243 242 242 241 243
308 310 309 306 302 298 296 295 292 290 286 282 278 270 263 258 251 247 241 238 235 238 237 245 248 242 241 241 242 240 239 240 239
307 308 308 302 300 298 299 299 300 300 296 290 281 275 270 261 254 246 242 240 231 233 237 234 241 243 241 240 240 241 237 235 235
307 309 304 301 301 304 312 314 316 312 305 299 295 285 272 265 255 248 241 239 237 229 232 236 235 242 235 240 238 241 239 235 232
311 309 307 307 310 318 323 323 320 315 313 311 306 297 284 272 257 249 242 237 241 233 227 237 238 229 238 239 240 236 237 236 234
309 308 309 313 317 324 328 327 326 324 327 320 316 304 294 282 263 253 243 236 229 234 231 234 240 234 232 233 235 236 238 235 234
308 310 313 316 320 325 328 332 329 330 333 331 331 323 318 299 262 249 239 232 229 234 234 232 236 238 243 244 233 243 243 249 244
310 311 314 318 321 323 327 333 332 332 336 340 342 335 341 335 292 247 236 232 226 234 232 240 237 231 240 242 242 251 245 259 255
312 314 316 317 318 321 327 331 334 337 339 346 348 351 359 2 345 249 231 232 227 234 239 269 235 270 266 241 210 277 257 252 251
313 314 313 313 314 318 324 329 334 340 344 344 350 357 9 21 24 137 189 214 216 241 245 251 256 265 267 284 284 276 287 285 257
317 316 314 313 313 316 320 325 332 338 343 342 348 348 359 12 42 82 170 198 194 221 240 225 245 253 251 264 264 256 255 254 255
316 316 314 312 310 312 315 319 326 332 335 338 338 343 337 353 35 91 148 195 220 239 236 237 247 247 246 247 228 232 238 243 242
Height
3149 3148 3147 3146 3145 3144 3144 3144 3144 3143 3142 3142 3142 3141 3140 3139 3140 3140 3140 3140 3139 3139 3140 3141 3142 3142 3142 3143 3144 3144 3145 3146 3146
3144 3143 3142 3142 3141 3141 3140 3140 3139 3138 3138 3138 3138 3138 3137 3137 3136 3137 3137 3137 3136 3136 3136 3137 3139 3140 3140 3140 3141 3142 3143 3144 3144
3139 3139 3138 3137 3136 3136 3135 3134 3134 3134 3133 3133 3134 3134 3133 3133 3133 3133 3133 3134 3134 3133 3133 3133 3134 3136 3137 3138 3138 3139 3140 3141 3142
3134 3133 3132 3131 3131 3130 3130 3129 3129 3129 3128 3128 3128 3129 3129 3128 3128 3127 3128 3129 3130 3130 3130 3130 3130 3131 3133 3134 3135 3136 3137 3138 3139
3130 3129 3128 3126 3125 3125 3124 3123 3123 3122 3123 3123 3123 3122 3122 3122 3123 3122 3123 3123 3125 3125 3125 3126 3127 3128 3128 3130 3131 3132 3133 3135 3136
3127 3126 3124 3122 3121 3119 3118 3117 3116 3115 3115 3115 3115 3115 3114 3115 3115 3116 3118 3118 3118 3120 3121 3121 3122 3123 3124 3126 3127 3128 3129 3131 3132
3124 3122 3120 3118 3117 3116 3115 3113 3111 3110 3109 3108 3107 3107 3107 3107 3107 3108 3110 3111 3112 3114 3115 3116 3117 3118 3120 3121 3123 3124 3126 3127 3128
3121 3118 3117 3115 3114 3112 3110 3108 3106 3104 3101 3100 3098 3097 3096 3096 3097 3099 3101 3103 3104 3106 3109 3110 3112 3113 3115 3117 3118 3120 3122 3123 3125
3117 3115 3113 3112 3110 3106 3103 3101 3099 3096 3093 3090 3088 3086 3084 3084 3085 3087 3090 3094 3096 3098 3101 3103 3105 3108 3110 3112 3114 3115 3117 3119 3120
3114 3112 3110 3107 3104 3101 3098 3094 3092 3089 3085 3081 3077 3074 3072 3071 3071 3074 3077 3080 3086 3089 3092 3096 3098 3101 3104 3106 3109 3111 3112 3114 3116
3111 3109 3106 3102 3099 3096 3093 3088 3084 3080 3075 3071 3066 3061 3058 3057 3057 3061 3065 3069 3074 3079 3082 3087 3091 3093 3098 3101 3103 3106 3108 3109 3112
3108 3105 3102 3099 3095 3091 3086 3081 3075 3071 3066 3059 3054 3049 3044 3040 3042 3045 3052 3059 3064 3069 3075 3078 3083 3087 3091 3094 3097 3100 3103 3104 3107
3104 3101 3098 3094 3090 3086 3081 3076 3071 3064 3057 3051 3044 3036 3030 3028 3028 3032 3039 3047 3054 3062 3067 3070 3073 3075 3079 3087 3090 3093 3096 3098 3101
3100 3097 3093 3089 3085 3081 3076 3069 3062 3057 3051 3043 3034 3026 3019 3016 3017 3021 3028 3036 3046 3053 3060 3064 3066 3065 3074 3077 3081 3085 3087 3090 3093
3095 3092 3089 3084 3080 3076 3071 3065 3057 3049 3044 3036 3027 3020 3014 3010 3010 3014 3021 3029 3038 3046 3053 3057 3060 3065 3069 3071 3061 3077 3079 3084 3088
3092 3088 3084 3080 3076 3071 3066 3062 3055 3048 3041 3033 3027 3019 3013 3009 3008 3011 3016 3024 3033 3041 3047 3052 3054 3057 3060 3064 3071 3064 3070 3071 3079
3088 3084 3080 3076 3071 3067 3062 3058 3054 3045 3038 3031 3026 3020 3016 3012 3011 3012 3016 3022 3031 3037 3043 3044 3051 3054 3051 3051 3057 3063 3065 3066 3063
3084 3080 3076 3071 3067 3064 3060 3055 3050 3045 3039 3032 3027 3022 3019 3016 3015 3014 3017 3022 3030 3035 3042 3045 3049 3052 3052 3054 3054 3057 3060 3064 3066
3079 3075 3071 3068 3064 3060 3056 3052 3048 3044 3038 3034 3029 3026 3023 3020 3020 3019 3020 3023 3028 3032 3037 3040 3043 3046 3046 3049 3048 3048 3053 3058 3056
3075 3071 3067 3063 3059 3056 3053 3050 3046 3042 3038 3034 3031 3029 3026 3024 3023 3024 3023 3025 3026 3028 3032 3035 3038 3041 3041 3041 3044 3046 3047 3047 3049